OpenBCM V1.13 (Linux)

Packet Radio Mailbox

DB0FHN

[JN59NK Nuernberg]

 Login: GUEST





  
CX2SA  > KEPS     13.08.04 06:48l 95 Lines 2472 Bytes #999 (0) @ AMSAT
BID : ORB04225.M
Read: GUEST
Subj: Orbital Elements  04225.MISC
Path: DB0FHN<DB0RGB<OK0PPL<DB0RES<ON0AR<VE3FJB<YV6BTF<ED1ZAC<CX2SA
Sent: 040813/0438Z @:CX2SA.LAV.URY.SA #:64826 [Minas] FBB7.00e $:ORB04225.M
From: CX2SA@CX2SA.LAV.URY.SA
To  : KEPS@AMSAT


HR AMSAT ORBITAL ELEMENTS FOR MANNED AND MISCELLANEOUS SATELLITES
FROM WA5QGD FORT WORTH,TX August 12, 2004
SEND SUBSCRIBE/UNSUBSCRIBE TO majordomo@amsat.org ONLY
BID: ORB04225.M
TO ALL RADIO AMATEURS BT

Satellite: HUBBLE
Catalog number: 20580
Epoch time:      04225.09951062
Element set:     129
Inclination:       28.4662 deg
RA of node:       122.0461 deg
Eccentricity:    0.0003843
Arg of perigee:   234.9962 deg
Mean anomaly:     125.0269 deg
Mean motion:   14.99249854 rev/day
Decay rate:       7.39e-06 rev/day^2
Epoch rev:           58380
Checksum:              301

Satellite: UARS
Catalog number: 21701
Epoch time:      04224.66733638
Element set:    0245
Inclination:      056.9814 deg
RA of node:       004.5383 deg
Eccentricity:    0.0006894
Arg of perigee:   108.2735 deg
Mean anomaly:     251.9052 deg
Mean motion:   15.03589383 rev/day
Decay rate:      -2.54e-06 rev/day^2
Epoch rev:           70693
Checksum:              300

Satellite: PO-34
Catalog number: 25520
Epoch time:      04225.16551718
Element set:     988
Inclination:       28.4614 deg
RA of node:       217.3968 deg
Eccentricity:    0.0005633
Arg of perigee:   104.3548 deg
Mean anomaly:     255.7640 deg
Mean motion:   15.15664684 rev/day
Decay rate:       9.63e-06 rev/day^2
Epoch rev:           31964
Checksum:              322

Satellite: ISS
Catalog number: 25544
Epoch time:      04225.94334869
Element set:     432
Inclination:       51.6331 deg
RA of node:        36.0378 deg
Eccentricity:    0.0005656
Arg of perigee:   110.3739 deg
Mean anomaly:      26.2020 deg
Mean motion:   15.70786767 rev/day
Decay rate:     1.7384e-04 rev/day^2
Epoch rev:           32723
Checksum:              293

Satellite: OO-38
Catalog number: 26063
Epoch time:      04224.90944835
Element set:    0134
Inclination:      100.2179 deg
RA of node:       022.0372 deg
Eccentricity:    0.0036704
Arg of perigee:   205.0130 deg
Mean anomaly:     154.9288 deg
Mean motion:   14.35660654 rev/day
Decay rate:        9.0e-08 rev/day^2
Epoch rev:           23792
Checksum:              278

Satellite: NO-45
Catalog number: 26932
Epoch time:      04225.66252937
Element set:     827
Inclination:       67.0586 deg
RA of node:       302.0105 deg
Eccentricity:    0.0004298
Arg of perigee:   278.5708 deg
Mean anomaly:      81.4925 deg
Mean motion:   14.29436370 rev/day
Decay rate:        8.6e-07 rev/day^2
Epoch rev:           14970
Checksum:              318



Read previous mail | Read next mail


 11.06.2026 12:51:28lGo back Go up